GFSNW_850_rhum_009.txt.gz
RH
72 74 91 96 96 98 100 100 100 96 94 98 100 99 67 73 85 80 80 68 69 72 72 83 76 80 67 65 77 95 77 89 97 85 70 64 63 72 73 90 86 88 81 61
77 88 90 97 97 98 98 99 99 99 96 100 100 89 79 82 93 87 78 79 70 67 76 88 84 78 61 70 76 85 81 97 98 86 85 74 93 77 72 72 74 90 84 58
84 86 95 97 99 99 100 98 100 99 98 97 88 81 80 83 78 87 78 80 75 80 80 69 81 84 64 68 71 70 70 90 91 74 72 99 100 87 88 96 92 74 72 60
88 88 95 98 99 100 100 99 100 97 100 98 77 71 72 84 87 74 76 82 74 80 94 86 92 81 70 75 71 73 84 99 98 90 77 91 100 97 95 98 82 82 56 56
94 89 88 96 100 100 98 99 98 91 92 82 71 78 78 78 80 81 85 80 75 80 90 72 77 73 76 73 77 83 86 98 100 96 92 97 98 98 96 90 81 74 64 65
97 89 92 95 99 100 99 99 100 98 79 76 78 83 77 82 74 71 72 76 76 86 78 70 69 75 72 72 76 86 98 100 100 91 74 100 99 94 95 91 82 80 86 64
91 91 84 94 97 99 100 100 100 97 92 76 74 72 74 78 75 84 81 77 84 72 75 75 79 81 88 85 79 73 98 100 100 97 98 98 95 77 73 78 67 70 66 56
86 96 72 87 89 98 100 100 100 100 90 77 74 76 68 70 81 82 80 77 74 74 77 86 95 92 88 90 89 88 82 94 100 100 100 92 62 71 81 81 78 61 71 64
80 85 89 72 81 94 99 100 100 100 92 84 63 79 82 94 90 90 85 81 81 86 92 91 100 93 77 85 81 93 88 88 98 100 98 96 56 78 65 70 81 62 59 62
80 83 80 79 49 81 99 100 100 100 100 79 66 80 88 78 86 88 83 85 91 93 95 98 98 96 76 92 89 91 98 98 99 97 96 80 63 61 74 80 70 66 68 61
77 82 83 86 35 70 98 100 100 100 100 88 72 68 74 83 79 88 84 92 95 99 99 99 97 94 90 91 76 87 87 97 97 88 94 79 59 75 82 63 57 61 75 71
77 83 94 76 42 83 88 97 99 100 100 90 82 76 70 71 69 72 84 86 90 91 90 97 94 91 90 89 90 80 92 75 78 82 73 58 56 58 52 60 63 62 67 72
76 75 89 58 42 93 94 91 98 100 94 81 86 81 77 76 75 76 81 94 83 88 92 99 93 99 87 94 93 81 76 77 84 73 61 68 61 56 59 59 63 64 61 71
71 85 91 91 52 30 81 61 75 98 100 99 83 80 82 78 80 82 80 83 88 94 98 95 97 97 79 89 82 86 80 78 76 79 70 64 56 56 57 62 67 64 64 60
88 90 90 90 85 25 27 39 88 98 100 98 94 92 89 87 84 85 89 91 93 98 99 98 95 87 85 92 90 91 82 76 80 77 62 61 58 59 59 60 66 63 57 65
91 88 99 97 93 69 54 99 100 100 100 100 100 99 95 91 92 90 95 95 99 97 97 90 76 81 73 94 95 71 60 61 63 66 57 55 57 60 60 58 65 64 61 64
90 90 94 98 98 81 69 96 100 100 100 100 100 98 94 100 99 100 100 99 100 99 93 96 95 99 95 95 99 66 56 58 58 59 56 61 62 60 60 59 64 65 65 64
49 88 90 80 78 54 34 39 96 98 100 99 100 98 96 100 100 99 98 100 100 100 96 99 99 96 96 99 83 64 64 59 60 59 56 55 56 60 63 63 66 66 67 66
50 65 86 96 99 98 90 84 100 100 100 100 99 99 90 100 100 96 100 100 99 96 99 97 98 96 99 83 78 69 68 65 57 60 61 58 60 63 65 65 66 61 57 42
58 80 92 99 96 95 94 97 100 99 99 100 99 85 92 96 98 100 99 98 98 100 96 98 99 98 75 62 65 61 58 66 61 66 74 73 73 66 63 60 58 47 38 38
89 89 98 89 98 100 100 100 97 100 96 99 96 87 93 97 97 96 96 99 100 100 92 98 98 97 85 74 73 69 63 62 58 57 54 54 52 60 62 60 50 39 38 38
99 99 99 99 100 100 100 100 98 98 96 99 98 94 80 91 91 93 97 97 98 93 91 98 96 90 68 67 71 73 68 63 61 57 53 54 57 59 58 53 44 40 41 42
88 99 98 98 99 98 98 98 99 100 100 100 100 99 86 90 87 95 93 97 94 89 94 96 94 78 63 67 72 79 71 64 62 58 57 57 60 62 57 48 43 44 44 39
96 100 98 97 98 98 99 99 99 99 100 99 96 91 93 86 94 94 94 92 92 96 99 96 90 60 58 64 73 81 72 66 62 58 58 59 62 62 55 46 45 40 35 33
94 95 96 99 99 100 99 99 100 100 99 100 89 87 81 96 92 92 94 97 96 91 94 89 64 62 66 75 79 81 75 68 64 60 60 63 63 59 53 49 41 34 29 27
94 97 95 90 93 93 89 98 99 100 100 99 90 96 93 89 92 98 99 98 96 82 92 62 62 62 68 76 81 83 78 69 62 60 61 63 62 56 50 42 37 32 25 29
93 97 95 96 98 100 92 99 99 99 100 100 100 99 82 91 98 99 93 90 84 68 57 57 60 66 72 74 81 82 78 71 67 64 66 65 61 52 41 39 37 32 35 36

GFSNW_850_rhum_012.txt.gz
RH
72 95 91 97 95 98 100 100 100 100 98 99 99 100 69 69 69 76 64 53 55 57 62 69 64 65 53 51 63 75 58 68 85 70 46 46 44 54 61 92 78 88 74 56
90 96 92 90 98 100 99 99 99 100 91 99 100 90 73 77 75 74 66 66 56 53 63 73 58 60 51 59 58 60 62 91 90 72 68 58 70 56 54 80 84 88 84 48
89 93 87 89 99 100 98 99 100 98 94 91 75 71 72 81 77 75 66 68 61 60 62 58 68 67 58 57 54 62 59 66 85 66 66 61 100 78 77 96 92 68 68 55
91 93 68 79 99 98 98 100 98 97 100 86 60 59 68 75 76 71 66 68 61 62 70 69 68 64 62 62 64 63 65 100 92 77 66 77 89 85 93 99 79 80 55 47
90 90 70 76 90 95 97 98 98 90 86 74 57 70 68 68 76 67 72 68 64 63 66 65 69 66 66 62 62 66 71 89 97 96 79 78 97 88 94 97 94 69 60 60
89 70 51 87 84 97 98 99 99 99 87 74 63 67 63 63 63 70 68 64 68 76 69 63 65 64 64 63 65 72 89 100 100 88 63 72 96 96 96 95 92 75 82 59
87 72 52 87 75 96 100 100 99 98 85 72 61 61 63 65 60 74 75 71 72 74 76 75 74 70 69 75 77 61 91 100 100 97 90 96 84 78 82 83 79 71 62 54
80 70 66 86 56 69 98 100 100 99 81 65 62 61 62 72 75 69 71 75 73 70 75 77 75 76 81 74 75 74 69 90 100 99 98 69 68 75 86 78 64 52 60 55
82 72 63 84 40 61 93 100 100 100 95 72 62 60 63 65 70 77 75 82 82 74 81 79 93 77 66 69 74 80 79 82 99 100 98 91 66 54 63 59 65 52 57 54
80 74 67 83 36 46 57 100 100 99 99 84 68 67 72 75 72 77 78 84 89 90 84 85 95 82 68 69 70 85 90 96 96 96 93 64 53 54 73 65 56 54 64 54
56 93 67 50 37 30 68 72 100 100 99 97 74 65 80 82 74 71 77 85 92 94 96 96 86 86 67 73 62 67 64 78 87 78 76 78 52 60 57 53 56 59 68 74
44 78 86 47 50 45 62 93 86 100 100 99 81 74 68 67 62 70 79 79 83 81 93 93 94 82 75 68 66 63 74 59 57 60 54 47 54 54 56 64 64 64 69 73
52 89 88 92 77 37 42 48 72 95 100 92 89 85 78 73 73 72 77 87 80 90 83 94 93 97 88 75 69 66 63 61 66 65 49 54 54 59 60 62 73 69 70 74
93 91 90 88 92 93 75 37 44 95 100 99 84 82 82 78 76 76 76 77 83 89 96 92 89 94 72 70 69 68 60 67 64 62 53 51 57 61 61 60 68 72 77 68
94 93 96 86 99 96 67 32 52 96 99 98 93 92 83 80 80 82 84 85 89 99 97 98 92 79 88 72 76 70 61 57 55 48 53 52 53 62 61 64 68 71 65 69
96 94 92 92 93 97 91 98 100 99 98 100 97 98 98 96 94 92 92 97 98 98 95 90 80 74 81 86 76 53 55 61 60 48 56 56 58 62 60 62 66 70 65 68
91 92 92 95 100 99 96 96 100 100 100 100 99 94 100 100 98 100 99 99 97 97 94 96 88 83 94 96 81 52 59 59 57 59 60 61 61 63 63 60 66 68 68 70
92 92 80 90 96 98 80 38 60 100 100 100 100 96 91 99 99 96 98 99 100 99 97 94 99 97 100 98 72 65 61 62 60 60 61 57 57 62 64 65 66 67 67 67
93 74 82 90 94 91 93 99 94 100 100 99 99 100 95 100 100 96 100 99 99 92 100 98 98 90 98 77 67 68 68 67 64 66 64 60 63 64 65 67 69 64 66 64
82 80 89 97 86 90 95 97 100 100 100 96 98 82 90 95 99 98 94 100 98 100 92 98 99 97 73 70 74 69 66 62 69 68 74 71 72 67 66 66 66 64 63 54
91 86 95 99 98 99 98 100 100 99 100 96 93 86 82 92 90 90 93 96 100 100 90 95 96 85 71 70 66 69 67 67 62 65 62 60 56 63 64 67 67 60 46 39
97 99 98 92 99 100 100 100 100 97 96 99 97 91 89 96 95 90 97 98 98 99 83 95 96 75 68 64 69 73 75 70 63 63 59 60 59 60 61 64 62 45 38 39
91 96 93 96 98 96 94 96 99 99 98 100 99 99 91 96 90 92 92 96 93 83 96 91 81 72 61 56 68 83 79 67 62 60 57 60 61 62 58 59 49 40 40 42
97 96 96 93 95 94 95 99 100 98 100 100 100 95 93 88 96 88 95 84 87 96 98 92 82 61 58 64 73 84 77 70 63 58 57 60 63 64 61 52 40 39 42 42
94 92 98 95 97 99 97 96 100 100 100 100 99 91 85 95 95 85 94 96 95 86 86 82 64 58 63 74 76 81 77 71 65 60 59 62 65 63 57 47 44 45 39 36
91 97 96 89 91 90 87 93 99 100 99 100 100 99 98 97 91 97 99 97 93 82 96 66 55 57 64 73 77 79 79 71 66 65 65 66 66 60 52 50 50 41 34 30
91 90 92 94 99 99 95 88 94 96 100 100 100 100 100 92 95 96 88 90 90 90 72 67 66 66 67 69 75 78 79 73 68 66 68 69 66 58 52 51 45 38 34 33

GFSNW_850_rhum_018.txt.gz
RH
91 94 63 73 100 98 85 99 97 94 92 94 94 98 97 67 64 61 48 41 42 50 51 55 54 52 46 40 43 57 46 62 92 80 50 49 54 64 62 86 79 80 86 68
82 91 34 60 100 96 90 94 93 93 99 95 91 94 84 60 68 62 54 49 43 40 48 56 48 48 42 42 48 53 51 82 94 88 62 48 57 53 53 59 71 90 94 64
88 88 45 52 95 95 94 98 96 85 96 92 81 96 77 91 71 55 48 47 42 44 48 45 54 56 50 44 48 47 47 63 85 91 78 72 98 79 63 68 98 80 77 66
91 82 65 40 84 89 96 97 87 79 90 68 73 74 79 68 58 55 49 50 45 46 54 51 54 53 57 50 57 51 55 98 83 75 64 65 72 74 71 94 94 98 79 79
90 69 80 32 69 88 96 94 99 84 62 57 65 61 67 65 58 57 53 51 44 45 49 57 52 51 53 60 57 59 60 97 98 89 75 75 82 72 71 75 95 96 95 94
92 90 84 36 50 90 99 98 98 100 55 53 55 49 53 58 57 61 54 50 54 56 64 59 55 53 51 54 60 66 86 99 98 90 66 73 87 75 85 84 78 88 98 86
45 92 47 38 25 89 99 100 100 99 67 55 49 47 49 54 59 66 60 54 52 74 68 65 63 60 55 55 60 58 91 99 100 98 90 92 70 68 69 80 78 71 60 75
14 54 18 22 28 26 82 99 100 100 98 53 48 48 50 51 62 63 63 67 72 71 66 72 64 74 67 65 61 70 73 94 100 100 96 67 63 71 66 82 80 59 60 61
50 28 81 21 17 24 25 95 100 100 100 65 60 49 52 66 62 67 64 75 76 74 74 78 72 74 83 82 86 74 78 84 98 99 98 90 60 54 62 62 95 55 66 70
95 82 88 87 40 23 26 74 95 100 100 84 84 54 55 52 55 67 66 80 83 79 81 88 77 81 67 72 79 93 95 96 97 97 98 78 49 46 54 92 70 57 55 79
92 88 93 94 88 59 58 70 84 92 99 91 81 80 69 54 55 64 74 82 81 82 90 80 79 82 67 70 58 69 75 86 91 91 98 94 44 50 65 61 54 54 56 73
98 97 89 93 93 85 84 89 84 77 97 89 90 87 84 78 62 66 73 74 70 77 88 89 88 90 89 77 80 57 67 59 65 69 71 46 45 48 48 54 58 59 62 70
95 91 92 96 98 97 80 89 84 86 97 93 98 89 71 70 71 69 70 80 77 79 77 89 92 96 90 94 78 70 51 46 68 60 47 48 47 48 54 58 63 67 70 70
95 97 94 100 100 99 92 74 86 98 87 98 96 93 90 70 64 66 65 74 72 76 84 92 88 95 79 88 80 77 65 60 64 65 58 48 52 56 59 61 67 77 71 68
89 84 92 95 96 99 83 69 77 86 94 98 98 99 88 82 76 74 74 76 77 85 97 98 94 86 84 77 74 78 57 66 75 73 52 53 58 58 60 63 68 70 68 69
91 93 98 88 90 87 87 85 98 100 88 100 100 99 95 86 87 87 85 90 92 90 93 93 87 77 83 98 83 56 47 47 48 50 52 54 57 58 61 62 65 68 67 68
97 93 99 97 93 95 90 83 99 100 99 99 100 100 99 100 99 100 99 99 96 92 99 98 87 82 87 96 95 59 48 49 52 54 53 57 58 60 61 61 64 66 70 70
56 82 88 92 94 95 92 76 93 98 99 100 100 100 97 98 98 97 99 98 99 99 94 95 96 90 94 97 77 65 61 59 59 59 58 58 59 61 61 63 65 68 71 73
32 71 87 84 87 90 91 98 96 99 99 99 99 100 100 94 95 96 97 98 99 93 98 96 95 93 98 85 76 66 65 68 67 64 63 65 66 64 64 65 67 66 72 74
65 76 98 90 100 92 96 98 99 99 100 100 100 77 96 84 94 94 93 98 95 100 92 92 99 92 72 74 73 70 68 73 70 68 70 70 71 68 67 66 67 67 72 73
76 100 97 96 99 99 100 99 99 99 100 99 92 82 86 85 86 89 90 98 100 100 94 89 98 88 74 67 61 55 61 67 76 76 71 66 66 66 66 69 67 67 68 69
81 97 92 93 98 100 100 100 100 100 99 96 92 89 85 94 88 86 91 100 98 99 81 93 96 89 66 63 70 78 83 84 79 77 74 68 65 64 64 68 67 66 67 66
98 98 99 100 100 99 97 98 100 99 99 99 99 98 93 88 91 92 91 100 97 81 96 87 93 84 74 76 85 86 86 83 80 77 73 66 69 74 70 69 68 67 66 62
98 93 94 94 83 85 95 98 100 100 100 100 100 98 96 88 97 93 91 88 87 90 96 94 97 87 82 81 81 87 88 83 77 71 68 69 76 77 72 68 74 72 64 52
94 95 90 92 92 96 97 96 99 99 99 100 100 96 89 100 98 89 98 91 88 81 93 99 90 85 81 77 77 85 87 83 78 72 69 68 72 80 81 79 74 66 54 42
95 94 97 89 98 91 90 94 98 98 98 100 100 100 100 100 96 94 90 88 90 98 98 91 92 88 86 84 78 80 86 85 79 78 76 76 75 73 72 72 69 60 44 40
91 85 91 93 96 89 87 80 80 84 97 99 100 98 99 99 99 92 90 90 100 99 99 95 92 90 83 81 79 78 80 85 83 78 77 78 77 77 75 72 65 51 46 43

GFSNW_850_rhum_021.txt.gz
RH
74 74 62 69 84 80 74 80 89 92 82 89 94 100 100 90 70 62 54 46 53 58 66 69 63 66 53 46 45 60 50 71 97 80 62 58 62 70 69 86 78 91 94 69
66 51 33 51 79 71 75 86 92 85 92 98 100 93 78 74 84 66 56 56 47 50 56 63 54 56 45 44 45 61 54 78 93 81 71 58 69 64 63 63 76 84 91 65
78 61 38 41 86 81 81 94 97 74 91 91 88 87 91 83 64 62 55 50 44 50 51 50 58 68 50 49 54 48 47 74 80 86 79 79 86 75 67 71 97 78 76 65
70 48 42 33 87 79 79 90 91 80 95 88 84 87 81 68 68 55 51 53 48 51 58 57 65 65 60 51 57 53 61 88 92 80 75 77 77 76 73 84 78 97 68 71
42 12 26 27 85 84 82 91 99 97 90 69 77 68 71 70 66 70 59 56 54 63 70 65 64 63 66 67 64 62 66 98 96 98 76 81 91 78 72 72 71 78 81 84
22 13 10 23 43 90 100 100 97 100 88 67 66 65 70 64 64 62 62 54 60 80 76 68 63 56 55 55 69 71 81 96 98 96 74 85 93 79 70 78 80 82 97 77
23 18 15 9 23 42 98 100 99 99 91 71 64 55 54 59 67 70 62 55 68 74 66 63 62 60 59 59 63 64 95 99 99 99 89 90 68 71 70 84 73 74 77 65
88 30 25 41 8 22 52 99 99 99 99 91 64 51 52 67 63 66 70 70 73 69 67 79 79 84 68 62 67 76 76 94 100 100 96 74 63 75 78 86 74 64 66 71
99 97 74 43 74 11 26 96 96 100 99 88 87 77 53 76 75 72 77 72 66 69 83 86 81 73 80 91 90 71 82 83 99 98 99 96 60 59 63 70 87 56 65 77
97 100 98 96 81 57 26 76 69 95 100 94 83 83 72 56 63 81 77 84 79 80 88 94 87 87 68 91 91 95 95 99 98 98 98 82 60 52 64 88 65 62 60 74
91 99 96 90 96 90 63 52 90 87 96 80 78 81 88 89 59 70 79 80 83 90 96 92 90 88 78 76 74 86 88 94 96 97 99 93 46 60 69 56 57 60 62 69
96 96 93 90 91 90 87 74 76 89 91 65 79 81 77 85 88 83 74 77 77 74 92 91 89 88 87 87 90 61 76 71 78 79 76 49 46 49 52 55 59 61 65 70
88 93 99 98 88 84 88 90 76 98 97 80 80 57 62 75 78 84 74 76 75 76 76 88 88 94 84 90 93 77 62 52 63 65 56 54 52 54 54 57 59 64 70 71
90 95 94 86 90 84 87 100 82 87 99 99 85 89 92 72 72 73 70 70 75 76 75 89 92 92 81 75 85 89 74 67 70 76 64 58 56 56 57 58 65 74 71 71
98 97 90 88 88 87 79 85 74 70 93 98 97 99 100 90 71 68 66 70 71 81 94 97 94 85 88 80 80 86 67 72 80 82 56 58 58 57 60 60 63 69 69 71
87 98 97 87 98 99 99 86 95 85 97 90 99 100 99 92 81 74 78 82 87 86 85 93 87 83 83 90 93 63 55 56 54 56 54 54 56 57 58 59 62 67 68 67
98 99 97 93 92 99 98 79 96 100 99 99 99 100 100 100 100 99 97 93 91 90 91 98 90 86 84 97 89 65 60 63 64 63 59 60 59 58 59 60 62 66 68 70
65 92 76 80 91 89 89 84 83 94 98 99 99 100 99 98 100 99 99 100 99 97 93 96 97 90 92 96 79 73 76 71 67 65 64 60 58 61 62 63 63 67 69 69
32 67 78 92 93 89 93 97 88 93 99 98 99 100 100 100 98 99 99 95 99 90 96 95 94 92 99 86 84 80 72 72 76 70 67 66 66 67 66 64 66 67 70 71
60 78 96 90 97 95 96 99 99 99 99 99 100 89 99 91 92 100 96 99 97 100 96 96 99 97 78 63 59 60 63 59 65 81 72 69 71 71 69 66 65 66 71 71
66 99 98 89 97 99 100 99 99 99 100 100 98 87 91 89 91 97 93 100 100 100 95 92 99 95 71 68 72 79 82 83 78 79 79 79 72 69 70 70 67 68 71 86
62 99 98 98 99 100 100 98 100 100 100 99 96 94 91 88 87 89 94 100 99 98 85 94 88 92 78 76 77 85 89 85 82 80 76 77 74 67 71 69 67 67 73 72
97 98 100 99 99 99 99 97 99 98 99 100 99 99 93 89 90 96 94 96 97 85 96 88 90 87 84 80 83 85 88 85 82 80 77 74 68 70 73 71 68 67 70 82
98 94 95 98 95 86 95 98 99 99 100 99 100 98 97 92 96 94 85 89 85 89 98 92 99 94 88 83 83 88 90 86 83 80 76 72 71 84 85 82 72 66 71 88
95 96 95 95 88 92 96 96 100 99 100 99 100 98 91 99 100 90 96 94 91 78 88 99 97 92 85 81 81 84 87 88 82 84 75 77 83 89 94 91 83 80 95 71
95 95 98 88 96 96 90 92 100 99 99 99 100 100 99 99 88 97 89 85 86 96 100 97 93 89 88 84 77 78 81 85 86 82 78 76 74 79 87 90 85 86 78 65
91 93 86 93 96 92 87 84 87 85 95 100 100 99 95 99 99 96 84 95 100 99 99 91 90 92 92 92 89 76 74 78 81 83 81 79 78 78 79 80 78 73 68 59

GFSNW_850_rhum_024.txt.gz
RH
72 27 38 76 68 62 62 71 92 83 78 88 97 100 98 91 78 66 61 53 57 58 72 75 71 79 62 50 54 67 52 76 94 83 61 59 65 73 74 90 77 94 92 81
20 20 33 75 65 62 68 75 83 76 80 93 97 89 87 81 78 70 56 56 50 56 71 72 60 57 48 50 54 62 54 77 94 80 72 67 73 69 67 68 77 92 93 71
9 12 24 73 69 69 76 79 90 69 82 89 86 89 88 74 58 60 53 55 50 52 54 51 66 64 53 51 53 46 49 79 77 86 76 79 85 75 72 76 98 86 80 61
13 7 16 48 76 70 75 82 95 96 98 81 79 89 81 74 72 60 51 51 49 54 63 64 74 64 59 58 56 58 62 86 90 82 77 79 80 78 77 88 74 93 66 68
16 10 8 22 73 75 71 93 96 96 98 82 78 72 72 78 70 70 64 66 63 54 70 66 74 68 66 63 63 65 67 96 94 95 82 87 92 81 76 73 67 68 68 73
53 14 11 10 38 74 95 88 98 99 83 82 73 67 66 64 64 60 63 60 75 81 76 69 57 50 51 59 69 75 78 93 99 97 77 86 96 86 79 73 70 74 91 72
75 64 14 13 16 32 98 90 98 98 92 88 74 69 58 62 68 67 66 63 71 73 67 63 60 61 58 58 61 66 89 97 98 98 86 92 65 60 62 69 74 78 81 74
96 97 66 38 16 16 34 98 94 99 91 89 82 79 59 67 66 68 71 72 73 69 66 81 84 86 65 68 65 76 74 89 95 94 90 75 64 72 79 88 75 67 79 70
86 99 97 90 72 47 23 72 73 96 99 93 96 84 66 76 77 77 77 76 71 68 84 86 84 89 76 92 94 75 79 81 98 100 99 96 57 62 64 66 94 66 64 70
66 91 98 93 90 86 56 45 55 70 99 99 95 94 87 67 71 81 79 78 74 76 92 95 92 87 76 96 92 98 99 98 98 99 97 85 60 54 65 83 66 60 60 64
92 78 96 88 93 91 93 73 76 82 90 64 64 79 89 85 72 84 78 81 85 93 95 93 88 88 84 82 78 88 86 95 99 99 100 92 51 68 73 57 57 60 60 66
98 75 84 92 98 87 88 100 94 81 96 61 47 59 82 90 83 93 82 72 82 76 92 92 90 90 88 89 89 71 90 74 82 84 78 51 46 52 51 56 58 60 64 67
96 93 86 98 85 82 86 87 100 98 88 81 74 18 45 55 72 85 97 79 76 77 72 88 90 88 82 89 84 80 68 57 69 70 59 61 52 54 54 55 57 60 66 70
99 95 83 97 81 78 90 98 91 99 82 94 66 80 94 77 93 84 91 87 75 74 74 85 93 89 82 76 82 91 80 74 71 74 68 58 58 55 55 56 59 65 70 73
98 95 81 89 92 83 89 97 95 84 96 94 86 48 46 87 87 90 87 74 70 78 89 94 95 84 89 89 80 88 73 80 83 76 58 60 58 54 54 55 56 61 70 73
91 87 88 94 89 94 100 98 96 82 92 96 98 94 79 100 98 86 76 75 74 78 80 91 86 83 79 98 93 66 61 65 63 64 62 61 58 58 56 55 56 60 68 70
91 79 84 94 94 97 98 80 91 96 100 90 98 98 97 100 93 87 83 74 88 85 84 93 89 86 83 97 94 61 72 86 85 77 73 68 61 58 59 58 59 62 65 67
56 39 64 79 77 77 82 86 81 79 98 99 98 98 99 98 96 99 97 99 94 92 88 95 96 90 90 99 79 78 76 66 72 70 73 70 68 62 61 62 63 62 65 68
32 72 77 88 88 93 97 97 97 90 97 98 99 99 100 94 91 100 98 98 98 94 97 94 91 92 98 78 68 68 74 79 76 63 75 71 67 67 68 68 67 63 66 70
49 88 92 96 86 78 91 100 99 99 99 98 99 100 99 97 90 100 94 98 96 100 97 96 99 95 77 71 73 78 88 91 91 91 73 78 76 72 71 70 68 65 66 75
45 90 97 89 88 96 99 99 99 98 100 99 98 97 96 94 93 98 98 99 100 100 97 96 99 96 71 76 73 78 89 90 87 86 84 80 76 81 76 73 71 67 68 74
48 92 100 99 99 99 100 99 99 100 99 96 99 99 96 93 86 93 95 99 100 99 87 95 95 89 82 78 75 79 91 90 90 85 82 81 78 79 75 73 71 67 68 72
91 99 98 99 99 99 99 96 99 100 99 99 98 99 97 90 84 95 94 94 97 87 97 89 94 90 82 81 79 77 88 87 94 87 83 77 74 72 72 72 72 69 67 71
96 96 95 98 99 97 96 99 99 100 100 99 100 99 97 96 97 94 89 90 86 98 97 88 96 95 85 81 82 82 80 85 87 97 85 78 83 80 85 85 78 72 70 73
95 99 98 97 86 92 93 92 93 99 100 100 100 98 95 100 97 93 96 97 95 86 82 97 96 88 89 88 90 83 83 80 81 83 83 74 80 88 96 97 94 87 79 84
95 97 100 87 94 95 93 87 89 98 99 100 100 100 100 100 95 98 94 86 84 93 99 96 91 86 83 81 84 86 80 83 82 83 80 78 82 84 95 99 97 94 90 92
95 97 91 90 96 98 86 86 92 96 98 100 100 99 87 98 100 98 89 92 97 99 99 90 85 86 78 68 63 71 76 74 78 82 83 81 79 79 81 88 91 93 94 98

GFSNW_850_rhum_030.txt.gz
RH
9 7 5 49 62 46 52 64 84 71 67 88 97 100 98 85 83 72 61 55 61 72 71 74 71 80 62 53 56 64 56 79 97 77 66 63 66 75 74 83 77 96 94 73
13 8 7 8 61 59 64 65 62 64 69 96 95 85 86 87 79 68 59 56 51 61 67 72 64 64 54 53 54 61 62 79 93 84 72 69 75 75 70 70 80 95 88 60
26 10 7 6 39 63 62 69 89 67 71 88 80 89 85 76 64 63 56 58 55 60 59 62 69 64 62 57 53 50 53 74 76 80 70 82 91 81 75 76 96 85 83 71
42 18 9 7 15 68 63 78 97 98 97 87 90 86 84 80 83 69 52 55 57 58 69 71 74 66 63 62 60 64 61 87 86 78 72 79 77 75 84 84 78 86 69 74
66 33 14 11 8 63 68 92 92 88 91 95 77 76 75 79 74 76 62 62 56 56 67 64 79 69 66 64 62 67 68 95 89 94 77 87 94 85 80 80 73 75 70 74
84 58 50 34 21 21 99 97 98 95 83 91 78 76 74 74 73 64 70 59 73 75 76 72 58 52 53 56 71 77 75 96 94 91 81 88 94 88 82 74 75 69 82 57
94 79 89 76 82 38 51 98 98 90 93 94 89 87 84 74 75 66 74 67 68 73 66 62 57 58 61 61 66 66 82 89 92 96 86 95 58 67 67 70 65 69 64 63
92 97 83 82 77 80 50 39 83 98 85 77 86 92 92 76 70 74 74 76 75 71 65 79 79 76 68 67 64 73 66 82 94 92 90 75 59 77 75 75 68 66 66 62
100 94 88 87 84 85 74 55 40 78 97 87 91 83 94 88 83 76 79 77 75 72 86 80 89 96 79 87 94 78 78 77 87 93 98 97 56 69 68 64 76 58 72 74
96 99 99 86 85 84 74 79 68 48 85 79 94 90 94 94 87 87 80 82 77 73 89 90 90 89 75 96 96 92 99 100 97 91 93 83 61 53 66 80 67 57 63 64
91 83 100 100 98 84 91 92 83 72 67 35 41 60 91 83 84 93 84 85 85 91 88 90 90 91 89 87 83 91 88 95 90 84 99 95 58 73 73 60 58 61 61 61
99 93 93 100 99 90 87 98 99 100 98 74 64 56 53 57 39 82 93 92 81 77 91 94 92 96 95 88 94 80 92 82 93 84 81 55 52 59 50 52 58 57 59 61
99 85 91 99 99 94 81 100 98 94 100 96 96 78 53 51 44 37 83 95 89 82 76 87 90 86 90 97 95 83 76 69 81 80 67 69 56 54 57 59 57 57 59 60
99 98 92 96 98 85 82 97 99 100 100 98 72 60 57 48 63 75 52 59 95 96 91 84 92 86 79 88 81 88 80 78 80 82 72 60 60 60 60 61 61 59 60 60
99 97 72 98 100 79 81 89 89 99 99 97 86 86 63 73 72 61 74 50 70 99 100 92 92 88 89 93 90 94 81 79 83 80 69 75 72 65 65 65 66 63 62 60
99 77 90 89 78 72 90 83 85 88 98 99 97 67 57 57 49 48 56 66 99 100 99 86 84 76 74 93 84 72 71 70 73 84 85 82 76 72 74 75 65 66 63 61
95 87 91 58 68 89 90 78 80 84 86 98 96 96 92 97 61 89 58 74 100 98 95 88 90 90 79 88 90 75 84 82 72 66 68 77 77 74 71 76 73 66 62 62
97 84 45 72 80 80 97 79 98 100 98 98 98 95 100 93 92 92 92 98 99 99 92 92 94 97 87 92 76 73 71 68 64 72 73 72 67 58 61 74 76 68 64 65
84 55 81 87 94 93 92 95 100 98 98 98 98 98 99 99 90 96 100 98 98 98 93 95 89 96 94 82 78 70 70 70 66 60 64 73 80 77 70 76 72 71 70 69
65 62 99 95 99 97 95 99 100 100 98 98 98 98 96 100 93 98 93 91 96 93 86 96 97 92 82 74 69 68 69 70 74 83 83 83 83 84 81 83 82 77 75 72
53 49 90 100 98 98 99 98 100 98 100 98 98 99 98 95 94 97 90 98 96 99 98 99 94 84 86 82 74 71 72 72 84 91 98 100 99 93 86 80 79 84 82 76
96 66 84 98 99 100 100 96 99 100 99 98 98 100 100 99 94 93 98 97 97 98 96 99 98 93 86 75 73 74 74 84 88 95 99 99 99 93 86 86 76 78 84 81
81 95 96 99 98 98 100 94 98 99 100 100 99 99 100 99 93 99 99 99 98 95 100 96 96 93 82 80 82 78 80 84 85 89 98 100 100 96 85 80 76 73 76 77
87 91 97 98 96 92 97 95 98 98 98 100 100 100 100 99 99 95 92 96 92 100 100 93 98 88 87 89 84 77 78 80 83 86 94 98 98 97 98 98 92 92 81 78
74 94 97 97 87 93 92 94 98 88 93 100 99 100 100 100 98 92 97 99 98 90 89 96 95 89 86 78 78 81 80 80 81 83 85 85 86 85 88 99 100 100 97 91
87 100 99 89 98 90 90 90 92 98 99 97 100 99 99 99 98 98 94 89 85 85 100 94 90 87 76 67 57 52 63 68 73 76 77 82 83 82 81 85 99 100 100 100
93 93 91 95 96 94 87 94 92 94 96 99 100 98 91 99 99 99 92 93 91 91 92 86 83 79 74 74 49 37 38 40 44 56 69 74 79 83 82 82 85 95 100 100

GFSNW_850_rhum_033.txt.gz
RH
56 21 11 6 10 52 44 59 82 67 62 78 92 100 96 86 81 71 57 55 65 74 73 76 73 75 64 54 56 64 61 79 95 79 67 63 65 72 65 72 74 88 82 53
62 58 15 9 5 54 63 68 59 64 62 90 95 83 79 85 79 73 58 55 53 61 67 72 64 64 57 54 53 64 61 77 93 82 71 70 75 75 67 68 77 97 75 44
64 68 40 11 6 42 67 69 84 65 72 86 81 85 83 79 69 67 56 57 57 57 62 66 70 65 67 57 52 52 53 71 73 72 67 81 91 82 71 73 88 78 75 60
79 69 66 12 9 29 67 79 96 97 98 88 89 88 85 80 79 71 55 56 56 59 70 72 73 68 67 62 63 64 62 86 86 75 67 80 77 77 82 84 75 79 61 71
94 83 76 32 11 20 69 93 91 85 85 96 87 75 78 78 75 78 63 60 59 59 67 62 77 70 68 68 63 67 69 95 89 92 77 85 92 82 79 78 71 72 70 71
98 88 84 82 32 15 75 96 95 94 82 92 86 79 79 73 76 69 74 63 71 73 74 74 65 54 55 59 73 77 74 94 92 87 76 85 94 88 80 76 76 68 82 61
92 90 89 85 92 64 32 86 94 89 86 93 92 88 88 87 80 70 74 67 66 73 62 60 55 58 62 63 69 65 81 84 87 90 83 95 57 66 69 71 65 67 62 59
89 96 99 82 93 89 67 39 67 93 91 80 85 87 97 88 75 76 74 75 70 70 66 78 77 78 66 68 68 70 63 80 93 91 93 71 58 75 78 75 67 62 63 57
90 98 99 98 91 77 79 67 61 50 96 79 80 76 82 98 88 80 80 82 79 72 83 77 88 95 79 91 94 78 75 72 80 87 91 96 55 70 67 64 80 62 64 66
97 91 97 100 99 92 70 79 78 65 66 48 83 87 84 94 96 94 82 88 83 75 88 86 88 91 75 95 87 96 98 100 94 88 89 82 60 64 67 91 73 56 65 66
99 97 93 98 100 98 87 80 82 87 76 62 60 54 74 75 81 97 91 93 89 90 87 90 88 90 89 88 82 78 79 92 86 78 93 93 58 70 78 63 58 59 62 61
99 98 99 99 99 100 98 86 81 97 99 74 58 72 82 73 62 54 72 97 95 81 88 92 91 96 95 88 97 83 92 79 86 79 75 56 59 63 58 54 60 60 59 61
98 98 99 95 99 99 98 86 87 97 99 95 100 62 61 59 60 54 65 82 97 97 94 86 91 86 91 97 96 85 82 74 86 80 68 71 57 57 60 62 63 61 61 61
97 98 99 97 95 99 100 87 94 96 93 98 79 68 63 53 53 56 50 50 93 92 97 92 92 86 81 91 80 85 80 83 84 85 75 65 64 64 63 64 65 66 65 63
96 99 94 95 96 95 92 80 92 98 99 97 90 78 59 59 83 71 68 65 68 77 98 98 92 86 90 94 90 94 84 84 90 90 69 71 66 66 76 76 75 70 68 66
99 98 98 93 92 65 93 89 83 84 96 99 97 74 63 65 71 66 83 80 97 92 100 96 87 79 73 95 98 72 70 68 66 77 83 81 69 72 78 74 70 72 67 67
99 98 97 69 60 82 91 82 85 97 98 99 97 88 67 96 90 91 92 78 88 94 97 97 95 93 76 92 95 70 74 74 84 79 67 67 77 78 73 62 58 72 75 67
97 98 69 73 91 89 82 86 85 95 98 99 97 95 95 80 90 90 74 74 72 99 99 97 97 99 89 94 76 79 76 74 71 69 71 68 64 61 59 62 61 74 76 69
97 80 65 98 97 90 88 93 99 99 98 99 99 98 96 100 98 88 86 75 98 99 98 93 87 98 96 81 81 75 73 70 70 71 65 67 75 83 82 78 78 78 73 72
92 50 98 96 95 98 95 100 99 99 98 99 98 98 97 100 100 99 99 96 100 100 96 91 97 97 83 78 76 74 70 67 67 76 77 86 90 92 88 86 82 83 82 77
90 75 68 92 83 98 98 99 99 97 98 98 98 98 97 100 100 97 99 98 98 98 98 90 94 93 91 84 76 73 70 68 79 89 92 100 100 99 95 87 86 84 82 81
100 96 87 97 96 99 100 96 96 98 98 98 98 100 100 99 98 92 94 99 98 97 97 98 98 92 93 84 78 74 73 78 87 90 95 100 100 100 98 91 88 89 82 80
91 97 99 98 97 98 97 94 97 98 99 99 99 98 100 100 99 99 97 94 93 96 98 96 96 94 87 84 82 80 81 84 86 87 96 100 100 100 100 100 94 87 82 79
78 92 95 97 95 98 98 98 98 96 99 98 100 100 100 100 100 96 99 99 91 98 100 94 95 91 93 90 85 78 78 80 83 81 84 85 92 95 97 97 98 94 96 89
68 92 86 96 85 90 88 92 100 94 100 100 99 99 100 100 100 98 98 99 99 93 75 94 94 89 87 80 73 71 73 71 70 74 76 77 78 78 79 80 91 98 99 99
74 99 99 85 98 89 80 79 90 99 93 99 100 99 99 100 100 100 95 92 92 83 98 90 87 86 74 61 49 46 48 46 48 53 59 65 67 72 77 80 83 98 99 99
79 83 81 90 92 95 82 90 87 88 93 99 99 99 99 99 99 99 94 91 87 74 79 83 81 73 68 72 47 35 28 25 23 29 35 42 55 69 76 77 81 82 88 99

GFSNW_850_rhum_036.txt.gz
RH
43 45 44 32 9 10 50 52 83 64 60 80 83 92 85 82 70 69 50 50 57 62 63 66 63 54 54 51 46 51 52 62 83 73 59 55 53 53 43 50 68 62 55 28
52 45 47 60 11 12 66 67 58 59 59 73 72 70 68 73 62 60 53 50 50 53 57 63 56 59 53 54 47 50 49 65 89 86 67 62 66 56 51 51 58 77 45 29
71 61 59 68 14 10 69 74 81 68 73 86 66 68 68 66 70 62 53 50 52 49 52 51 57 55 60 56 51 54 46 57 68 52 69 64 83 66 57 55 72 54 44 36
88 82 75 65 17 22 77 79 93 93 85 74 73 76 74 70 67 67 54 52 49 47 55 56 57 57 59 56 63 55 50 89 81 60 59 70 68 65 66 80 56 62 41 44
88 86 80 69 29 24 78 97 89 83 81 89 72 70 70 72 69 69 56 54 50 49 52 44 57 55 55 54 60 54 57 92 86 83 68 70 79 65 62 63 58 55 49 50
90 92 90 84 59 24 63 88 89 95 74 77 71 67 70 69 70 65 70 48 56 60 56 59 54 49 47 48 54 59 61 90 84 76 65 67 73 66 62 59 58 54 63 44
83 87 99 93 84 57 46 71 88 87 74 75 76 76 79 74 73 78 69 62 54 67 58 59 56 55 55 53 55 50 65 77 78 82 72 82 52 54 53 55 49 51 47 44
83 86 94 98 96 80 57 59 52 96 68 73 63 74 82 82 74 74 73 74 72 65 68 59 62 62 58 61 62 54 50 58 82 83 69 51 42 59 61 63 64 48 51 44
89 87 93 98 98 96 79 67 62 49 81 54 87 68 70 85 76 68 77 83 81 74 63 69 68 77 58 75 75 66 60 52 63 78 83 71 48 59 55 53 71 54 51 50
92 95 91 88 99 99 92 82 72 76 75 49 76 69 78 92 95 84 77 89 84 79 71 66 60 67 60 75 71 83 79 82 82 71 68 56 43 59 65 83 66 56 62 61
92 99 93 98 98 99 97 92 89 70 90 69 64 57 65 62 49 91 89 92 92 85 84 73 73 58 63 69 58 65 64 71 85 73 80 77 50 63 64 57 58 60 64 62
90 92 98 95 96 99 99 92 85 84 98 74 70 82 80 72 58 62 60 96 89 79 79 75 68 71 69 63 76 64 70 53 56 55 52 41 57 60 62 55 58 61 59 61
93 92 97 98 98 99 99 100 99 99 100 88 96 90 72 65 72 80 67 62 93 100 100 86 73 74 65 72 68 68 64 59 64 65 47 50 54 59 60 62 65 62 62 63
96 91 95 95 99 99 98 100 98 92 96 97 79 63 54 56 57 60 70 66 75 88 98 98 84 73 71 66 60 62 62 66 61 63 59 63 63 63 66 68 68 66 66 66
98 98 98 98 99 98 95 78 97 98 98 85 80 84 67 61 68 76 63 67 83 83 86 99 98 75 74 73 69 69 69 66 68 62 54 51 56 68 69 71 73 70 72 66
99 99 98 98 96 65 92 90 82 79 93 99 91 76 63 61 83 67 84 79 91 89 81 88 99 89 69 79 72 55 64 68 69 58 66 68 69 66 66 78 75 70 64 72
98 97 94 99 52 86 93 87 79 89 98 97 88 83 66 94 85 88 99 98 98 89 86 80 97 96 79 75 67 56 65 71 70 78 78 70 67 76 78 74 63 59 55 71
92 93 92 57 91 94 94 87 88 89 99 97 92 87 84 89 87 90 94 92 85 90 96 82 82 98 86 83 67 74 77 78 79 76 72 70 68 64 62 67 68 65 65 74
85 92 64 97 98 95 93 93 98 99 99 98 94 90 91 99 98 93 90 77 78 90 100 94 95 94 98 72 72 73 74 73 73 75 74 69 65 77 84 83 82 80 78 77
79 75 76 95 93 90 89 100 99 98 99 98 95 98 93 99 99 96 99 88 78 100 98 99 98 97 83 78 79 76 75 73 67 65 67 73 88 95 92 91 92 90 81 82
88 92 69 75 84 84 98 98 98 98 94 99 98 98 96 99 100 96 99 100 100 100 99 97 97 87 83 86 79 75 71 67 64 70 84 95 100 99 96 96 93 89 90 81
99 98 94 92 92 99 98 92 94 97 96 99 97 98 99 99 100 99 96 100 99 97 94 93 93 86 97 89 82 77 72 70 76 84 86 99 100 100 99 100 100 89 88 88
78 83 96 97 95 95 95 95 94 91 99 99 98 97 99 100 100 99 98 99 96 97 100 89 84 93 90 85 81 77 77 81 86 87 91 96 100 100 99 99 100 100 98 90
63 72 76 91 91 88 92 92 92 92 100 99 100 99 98 100 99 98 100 100 98 99 95 84 86 91 88 84 81 80 82 84 82 80 80 80 86 83 84 88 96 100 97 99
65 66 65 85 85 84 82 84 96 88 98 100 97 99 99 99 100 100 99 98 93 84 74 80 92 83 85 83 80 78 76 71 70 67 66 65 69 72 74 77 82 94 100 100
67 78 87 77 94 84 74 69 86 93 89 92 100 100 100 100 100 100 97 90 87 78 89 81 84 82 78 63 56 57 50 40 35 42 41 42 47 54 65 75 78 80 89 100
66 71 65 74 74 79 70 76 80 86 87 94 97 98 97 99 99 96 88 86 88 83 80 83 82 78 66 61 47 39 29 25 22 22 24 29 36 48 56 57 70 78 80 81